Regional Weather Roundup
Issued by NWS

Home | Current Version | Previous Version | Graphics & Text | Print | Product List | Glossary On
Versions: 1 2 3 4 5 6 7 8 9 10 11 12 13 14 15 16 17 18 19 20 21 22 23 24 25 26 27 28 29 30 31 32 33 34 35 36 37 38 39 40 41 42 43 44 45 46 47 48 49 50
239
ASUS43 KMPX 051101
RWRMN
WEATHER ROUNDUP FOR MINNESOTA
NATIONAL WEATHER SERVICE TWIN CITIES/CHANHASSEN MN
500 AM CST MON DEC 05 2016


NOTE: "FAIR" INDICATES FEW OR NO CLOUDS BELOW 12,000 FEET WITH NO
SIGNIFICANT WEATHER AND/OR OBSTRUCTIONS TO VISIBILITY. N/A MEANS
CURRENT SKY AND/OR WEATHER CONDITIONS ARE NOT AVAILABLE.

MNZ060>063-068>070-051200-
   Twin Cities Metro

CITY           SKY/WX    TMP DP  RH WIND       PRES   REMARKS
TWIN CITIES    MOCLDY    29  26  89 E6        29.79F WCI  23
ST PAUL        PTCLDY    28  28 100 SE3       29.81S FOG
CRYSTAL        PTCLDY    27  24  89 SE5       29.77F WCI  22
BLAINE         PTCLDY    28  28 100 S5        29.78S WCI  23
LAKEVILLE        N/A     25  25 100 CALM      29.79S
EDEN PRAIRIE   CLOUDY    29  26  89 SE5       29.78S WCI  24
SOUTH ST PAUL  PTCLDY    29  28  99 CALM      29.80F FOG
LAKE ELMO      FOG       27  25  93 S3        29.81S VSB 1/4
$$
MNZ001>005-007-008-013>017-022>024-027-028-051200-
   Northwest Minnesota

CITY           SKY/WX    TMP DP  RH WIND       PRES   REMARKS
BEMIDJI        CLOUDY    28  26  93 CALM      29.70S
HALLOCK        CLOUDY    30  27  86 CALM      29.70S
ROSEAU         CLOUDY    30  27  86 W7        29.69S WCI  23
WARROAD        CLOUDY    30  27  86 SW7       29.69R WCI  23
THIEF RVR FALL CLOUDY    27  25  92 S5        29.71F WCI  22
CROOKSTON      CLOUDY    27  27 100 CALM      29.71F FOG
FOSSTON        CLOUDY    25  25 100 CALM      29.70F FOG
DETROIT LAKES  CLEAR     25  23  93 E3        29.70S
MOORHEAD       CLEAR     23  21  93 CALM      29.70F
PARK RAPIDS    CLOUDY    27  23  85 S5        29.70S FOG     WCI  22
$$
MNZ006-009>011-018-025>026-051200-
   North Central Minnesota

CITY           SKY/WX    TMP DP  RH WIND       PRES   REMARKS
BAUDETTE       CLOUDY    30  26  85 W9        29.68R WCI  22
FLAG ISLAND    CLOUDY    30  28  93 SW9       29.65R WCI  22
INTL FALLS     CLOUDY    30  27  88 SW6       29.67R FOG     WCI  24
WASKISH        CLOUDY    28  27  93 W10       29.70S WCI  19
BIG FORK       CLOUDY    28  27  93 SW5       29.70S WCI  23
LONGVILLE      CLOUDY    30  27  86 CALM      29.71S
GRAND RAPIDS   CLOUDY    29  27  92 NW5       29.73S WCI  24
CRANE LAKE     CLOUDY    28  27  93 CALM      29.70R
ORR            CLOUDY    28  25  86 SW6       29.66S WCI  22
COOK           CLOUDY    28  27  93 SW5       29.70R WCI  23
$$
MNZ012-019>021-037-051200-
   Northeast Minnesota

CITY           SKY/WX    TMP DP  RH WIND       PRES   REMARKS
DULUTH         CLOUDY    31  27  85 W10       29.71S WCI  22
ELY            CLOUDY    28  27  93 SW6       29.68S WCI  22
HIBBING        CLOUDY    28  26  92 W6        29.70S WCI  22
EVELETH        CLOUDY    32  30  92 SW8       29.71S WCI  25
DULUTH HARBOR  CLOUDY    36  30  80 SW12      29.76S
TWO HARBORS    PTCLDY    34  28  80 W7        29.70S WCI  28
SILVER BAY     CLOUDY    32  30  93 CALM      29.70R
GRAND MARAIS     N/A     34  33  96 W5        29.69R WCI  30
G MARAIS ARPRT CLOUDY    28  25  86 W6        29.64S WCI  22
$$
MNZ029>031-032-039>041-046>048-054>057-064-051200-
   West Central Minnesota

CITY           SKY/WX    TMP DP  RH WIND       PRES   REMARKS
FERGUS FALLS   CLEAR     27  27 100 E7        29.72F WCI  19
WHEATON        CLEAR    N/A N/A N/A E10       29.69F
MORRIS         CLEAR     28  27  93 SE10      29.68F WCI  19
ALEXANDRIA     CLEAR     24  23  96 E6        29.71F WCI  17
ELBOW LAKE     FAIR      26  25  96 CALM      29.69F
WADENA         PTCLDY    16  16 100 CALM      29.70F
GLENWOOD       CLEAR     25  25 100 SE7       29.71F WCI  17
APPLETON       CLOUDY    27  25  93 E7        29.69F WCI  19
BENSON         CLOUDY    27  25  93 SE6       29.70F WCI  20
ORTONVILLE     PTCLDY    28  25  86 CALM      29.66F
MADISON        PTCLDY    30  28  93 E6        29.68F WCI  24
WILLMAR        FAIR      28  27  93 E6        29.73F WCI  22
$$
MNZ033>034-036-042>043-049>051-058-059-051200-
   Central Minnesota

CITY           SKY/WX    TMP DP  RH WIND       PRES   REMARKS
ST CLOUD       CLEAR     24  24 100 SE7       29.76S WCI  16
PAYNESVILLE    PTCLDY    29  29 100 CALM      29.74F
AITKIN         CLOUDY    32  27  80 SW3       29.73R
PINE RIVER     CLOUDY    28  27  93 W3        29.77R
BRAINERD       FOG       23  22  96 CALM      29.74R VSB 1/2
STAPLES        CLEAR     19  19 100 CALM      29.72S FOG
LONG PRAIRIE   FAIR      23  21  93 CALM      29.72F
LITTLE FALLS   CLEAR     25  23  93 CALM      29.74F
LITCHFIELD     PTCLDY    28  28 100 SE3       29.75F
BUFFALO        CLEAR     28  27  95 CALM      29.78S
MAPLE LAKE     PTCLDY    29  28  99 CALM      29.77S
$$
MNZ037-044-045-052-053-051200-
   East Central Minnesota

CITY           SKY/WX    TMP DP  RH WIND       PRES   REMARKS
PRINCETON      FOG       25  23  93 CALM      29.77S VSB 1/2
MORA           FOG       27  27 100 CALM      29.79R VSB 1/2
CAMBRIDGE      CLEAR     28  27  93 CALM      29.76S FOG
RUSH CITY      CLEAR     27  25  93 CALM      29.78S
MOOSE LAKE     MOCLDY    32  28  86 W6        29.72F WCI  26
HINCKLEY       FOG       27  27 100 S3        29.77R VSB 1/2
CLOQUET        CLOUDY    32  27  80 CALM      29.73R
MCGREGOR       CLOUDY    32  30  93 W3        29.73F
$$
MNZ071>073-080-081-089-090-097-098-051200-
   Southwest Minnesota

CITY           SKY/WX    TMP DP  RH WIND       PRES   REMARKS
MONTEVIDEO     PTCLDY    28  28 100 S7        29.71F WCI  21
GRANITE FALLS  MOCLDY    30  28  93 E6        29.72S WCI  24
CANBY          CLOUDY    32  30  92 CALM      29.68F
MARSHALL       PTCLDY    35  30  82 S12       29.68F WCI  27
REDWOOD FALLS  PTCLDY    30  27  88 SE10      29.72F WCI  21
OLIVIA         PTCLDY    32  30  93 SE6       29.72S WCI  26
PIPESTONE      CLOUDY    34  30  86 SE13      29.64F WCI  25
WINDOM         CLOUDY    34  32  93 CALM      29.72F
WORTHINGTON    CLOUDY    32  30  92 S8        29.71F WCI  25
JACKSON        CLOUDY    32  30  93 S12       29.74F WCI  23
TRACY          MOCLDY    35  32  88 S13       29.69F WCI  27
SLAYTON        MOCLDY    32  31  95 SE9       29.70F WCI  24
$$
MNZ065>067-074>077-082>085-091>093-051200-
   South Central Minnesota

CITY           SKY/WX    TMP DP  RH WIND       PRES   REMARKS
MANKATO        CLOUDY    32  31  96 S9        29.78F WCI  24
NEW ULM        MOCLDY    30  30 100 SE8       29.75F WCI  23
ST JAMES       CLOUDY    34  30  86 SE7       29.76F WCI  28
FAIRMONT       CLOUDY    32  30  92 S12       29.77F WCI  23
GLENCOE        PTCLDY    31  31 100 SE6       29.76S WCI  26
FARIBAULT      PTCLDY    32  30  93 SE6       29.80F WCI  26
OWATONNA       CLOUDY    32  30  93 SE5       29.80S WCI  27
WASECA         CLOUDY    32  30  93 SE5       29.80F WCI  27
ALBERT LEA     CLOUDY    36  34  93 S6        29.80F FOG
$$
MNZ078>079-086>088-094>096-051200-
   Southeast Minnesota

CITY           SKY/WX    TMP DP  RH WIND       PRES   REMARKS
ROCHESTER      FOG       30  30 100 S10       29.83S VSB 1/2 WCI  21
RED WING       MOCLDY    28  27  93 CALM      29.82S
STANTON        PTCLDY    33  30  90 CALM      29.79S
DODGE CENTER   PTCLDY    28  28 100 S9        29.81S FOG     WCI  20
WINONA         CLOUDY    34  32  93 CALM      29.87S
PRESTON        FOG       30  29  97 S9        29.85S VSB 1/4 WCI  21
$$
ABBREVIATIONS USED IN REMARKS
   TC - TEMPERATURES IN CELSIUS
  WCI - WIND CHILL INDEX
   HX - HEAT INDEX
  VSB - VISIBILITY
$$




USA.gov is the U.S. government's official web portal to all federal, state and local government web resources and services.